SCP
0 0 0 0 0 0 0 0 0 0 0 0 0 0 0 0 0 0 0 0 0 0 0 0 0 0 0 0 0 0 0 0 0 0 0 0 0 0 0 0 0 0 0 0 0
0 0 0 0 0 0 0 0 0 0 -0 0 0 0 0 0 0 0 0 0 0 0 0 0 0 0 0 0 0 0 0 0 0 0 0 0 0 0 0 0 0 0 0 0 0
0 0 0 0 0 0 0 0 0 0 -0 0 0 0 0 0 0 0 0 0 0 0 0 0 0 0 0 0 0 0 0 0 0 0 0 0 0 0 0 0 0 0 0 0 0
0 0 0 0 0 0 0 0 0 0 0 -0 0 0 0 0 0 0 0 0 0 0 0 0 0 0 0 0 0 0 0 0 0 0 0 0 0 0 0 0 0 0 0 0 0
0 0 0 0 0 0 0 0 -0 0 0 -0 0 0 0 0 0 0 0 0 0 0 0 0 0 0 0 0 0 0 0 0 0 0 0 0 0 0 0 0 0 0 0 0 0
0 0 0 0 -0 0 0 0 -0 0 0 0 0 0 0 0 0 0 0 0 0 0 0 0 0 0 0 0 0 0 0 0 0 0 0 0 0 0 0 0 0 0 0 0 0
-0 0 0 0 0 -0 -0 0 -0 0 0 0 0 0 0 0 0 0 0 0 0 0 0 0 0 0 0 0 0 0 0 0 0 0 0 0 0 0 0 0 0 0 0 0 0
0 0 0 -0 0 -0 -0 0 0 -0 0 0 0 -0 -0 0 0 0 0 0 0 0 0 0 0 0 0 0 0 0 0 0 0 0 0 0 0 0 0 0 0 0 0 0 0
0 -0 -0 -0 0 -0 -0 0 0 0 -0 0 -0 -0 0 0 0 0 0 0 0 0 0 0 0 0 0 0 0 0 0 0 0 0 0 0 0 0 0 0 0 0 0 0 0
0 0 0 0 0 -0 -0 -0 0 0 -0 -0 -0 -0 -0 0 0 0 0 0 0 0 0 0 0 0 0 0 0 0 0 0 0 0 0 0 0 0 0 0 0 0 0 0 0
0 0 0 0 0 0 0 -0 -0 0 -0 0 0 -0 0 0 0 0 0 0 0 0 0 0 0 0 0 0 0 0 0 0 0 0 0 0 0 0 0 0 0 0 0 0 0
0 0 0 0 0 0 0 -0 -0 -0 0 0 0 0 0 0 0 0 0 0 0 0 0 0 0 0 0 0 0 0 0 0 0 0 0 0 0 0 0 0 0 0 0 0 0
0 0 0 0 0 0 0 0 -0 -0 -0 0 -0 0 -0 0 0 0 0 0 0 0 0 0 0 0 0 0 0 0 0 0 0 0 0 0 0 0 0 0 0 0 0 0 0
-0 0 0 0 0 0 0 -0 -0 -0 -0 -0 -0 -0 0 0 0 0 0 0 0 0 0 0 0 0 0 0 0 0 0 0 0 0 0 0 0 0 0 0 0 0 0 0 0
0 0 0 0 0 0 0 0 -0 -0 0 0 -0 -0 0 0 0 0 0 0 0 0 0 0 0 0 0 0 0 0 0 0 0 0 0 0 0 0 0 0 0 0 0 0 0
-0 0 0 0 0 0 0 0 -0 0 0 0 0 -0 0 -0 -0 0 0 0 0 0 0 0 0 0 0 0 0 0 0 0 0 0 0 0 0 -0 0 0 0 0 0 0 0
-0 0 0 0 0 0 0 0 -0 -0 0 0 0 0 0 -0 -0 0 0 0 0 0 0 0 0 0 0 0 0 0 0 0 0 0 0 0 0 0 0 0 0 0 0 0 0
-0 0 0 0 0 0 0 0 0 -0 -0 -0 0 0 0 0 -0 -0 0 0 0 0 0 0 0 0 0 0 0 0 0 0 0 0 0 0 0 0 0 0 0 0 0 0 0
0 0 0 0 0 0 0 0 -0 -0 0 -0 -0 0 0 0 0 0 0 0 0 0 0 0 0 0 0 0 0 0 0 0 0 0 0 0 0 0 0 0 0 0 0 0 0
0 0 0 0 0 0 0 0 0 -0 -0 0 -0 0 0 0 0 0 0 0 0 0 0 0 0 0 0 0 0 0 0 0 0 0 0 0 0 0 0 0 0 0 0 0 0
0 0 0 0 0 0 0 0 0 0 0 0 0 0 -0 -0 0 0 0 0 0 0 0 0 0 0 0 0 0 0 0 0 0 0 0 0 0 0 0 0 0 0 0 0 0
0 0 0 0 0 0 0 0 0 0 -0 -0 -0 0 -0 -0 -0 0 0 0 0 0 0 0 0 0 0 0 0 0 0 0 0 0 0 0 0 0 0 0 0 0 0 0 0
0 0 0 0 0 0 0 0 0 0 0 0 -0 -0 -0 -0 0 -0 0 0 0 0 0 0 0 0 0 0 0 0 0 0 0 0 0 0 0 0 0 0 0 0 0 0 0
0 0 0 0 0 0 0 -0 0 0 0 -0 -0 -0 -0 -0 -0 0 -0 0 -0 0 0 0 0 0 0 0 0 0 0 0 0 0 0 0 0 0 0 0 0 0 0 0 0
0 0 0 0 0 0 0 0 -0 -0 0 0 0 0 0 0 0 -0 -0 0 0 -0 0 0 0 0 0 0 0 0 0 0 0 0 0 0 0 0 0 0 -0 0 0 0 0
0 0 0 0 0 0 0 0 0 0 0 0 0 0 -0 -0 -0 0 0 -0 0 0 0 -0 -0 0 0 0 0 0 0 0 0 0 0 0 0 0 0 0 0 0 0 0 0
0 0 0 0 0 0 0 0 0 0 0 0 0 -0 0 0 0 0 0 0 0 0 0 0 -0 0 0 0 0 0 0 0 0 0 0 0 0 0 0 0 0 0 0 0 0
Wind_Speed_500mb
35 38 42 43 46 45 50 47 53 61 59 54 53 49 46 46 49 48 57 57 47 50 28 33 34 31 35 12 14 10 6 6 11 11 11 11 10 10 14 19 16 19 8 7 45
34 35 35 37 40 41 42 45 43 54 68 54 56 38 45 43 46 59 55 45 44 41 39 47 35 27 27 8 11 10 9 15 11 10 8 11 13 27 13 16 15 21 17 14 49
35 36 35 36 37 37 42 49 48 48 58 67 40 50 44 40 34 66 48 42 41 40 39 35 41 36 21 25 14 10 13 9 7 14 8 4 13 21 18 7 26 44 34 32 52
34 36 37 37 40 39 39 42 44 47 48 60 48 32 43 38 15 19 38 42 45 42 37 39 34 20 13 15 19 7 15 10 5 8 3 4 7 13 29 15 37 36 38 42 54
32 36 40 40 42 41 40 41 41 42 42 43 69 36 48 37 48 14 17 27 33 45 45 41 40 23 13 14 15 6 4 12 34 10 8 6 9 10 25 26 16 37 44 46 48
33 36 40 45 45 41 39 41 40 43 39 33 54 46 25 22 39 26 23 24 20 30 44 42 25 27 17 10 15 14 17 6 9 17 10 4 4 1 10 29 24 40 51 51 50
38 38 38 43 48 45 39 39 34 41 38 35 30 36 42 50 11 33 32 22 15 19 30 42 20 26 14 8 10 13 10 4 15 7 7 10 14 12 13 25 27 45 52 56 55
38 39 39 41 46 49 44 39 38 43 36 34 25 23 18 32 33 32 35 29 24 20 21 35 18 15 8 11 8 13 7 7 5 18 7 11 16 11 32 21 32 41 53 58 60
35 36 38 38 45 46 48 43 38 38 39 26 27 9 16 20 56 30 28 30 30 25 25 29 19 9 8 14 7 2 10 11 5 18 6 10 10 7 15 28 32 38 49 55 58
33 33 36 37 42 46 48 45 34 34 29 22 13 3 21 16 51 40 31 31 22 27 23 20 9 3 2 9 22 13 10 4 11 8 7 7 20 12 1 19 37 36 39 49 56
29 32 35 36 39 43 48 42 20 9 38 16 12 10 17 19 20 48 37 23 17 23 8 12 8 16 10 6 5 11 9 12 7 5 7 10 12 19 27 21 21 30 42 51 56
27 30 31 33 36 35 29 21 20 25 21 41 29 39 39 43 10 45 43 23 17 10 12 7 13 12 12 8 8 10 8 8 4 6 8 6 15 22 15 19 44 52 44 48 60
26 29 31 30 27 20 20 27 24 23 10 17 21 24 24 16 19 41 52 26 10 12 13 12 4 20 13 10 13 8 8 4 5 8 2 6 13 17 12 25 51 62 67 65 62
25 28 30 26 12 22 17 30 27 23 6 8 5 9 18 16 12 20 56 21 8 17 12 6 6 20 11 12 14 15 14 3 9 9 7 2 11 12 11 16 14 46 58 70 79
22 23 25 17 16 16 29 26 21 14 9 12 2 6 11 16 10 4 28 4 20 18 14 11 14 21 8 11 13 10 13 15 5 5 7 4 7 13 2 13 16 24 55 70 78
20 20 19 13 12 20 24 16 20 10 8 14 11 6 10 15 10 12 8 3 10 11 1 4 4 8 14 7 13 15 13 13 8 6 5 12 11 9 11 12 8 13 27 27 29
21 15 13 11 13 19 15 13 10 8 12 15 9 13 14 3 9 16 5 9 10 12 10 7 3 3 8 11 6 7 14 4 4 2 13 9 10 18 13 15 11 13 19 15 18
15 7 7 9 13 15 7 10 12 8 9 8 15 17 6 4 10 16 12 10 10 2 6 11 8 18 10 12 14 15 20 10 14 7 7 2 14 12 12 28 30 37 42 33 15
6 2 3 6 11 6 7 9 12 11 7 13 19 8 6 8 2 4 12 13 15 13 8 9 8 4 4 7 17 11 13 9 12 5 5 8 13 16 18 20 17 25 22 17 12
8 6 7 7 5 5 8 6 6 6 8 5 2 6 7 17 9 10 10 9 13 22 5 4 1 2 7 6 8 11 16 6 3 8 7 8 9 10 9 13 11 12 13 12 16
7 1 6 9 9 3 6 11 9 12 8 5 8 10 8 6 2 11 11 5 6 14 20 7 3 7 10 18 27 8 14 7 8 9 10 3 11 14 14 6 13 15 18 13 14
4 4 3 3 4 3 2 8 9 10 7 7 9 12 8 7 6 7 7 3 9 11 10 12 5 8 14 2 8 30 21 27 11 9 3 4 11 7 12 11 19 23 15 13 10
4 3 1 1 3 5 10 8 7 5 6 5 8 5 5 5 6 1 9 15 21 16 14 13 11 3 3 6 7 26 15 30 7 5 13 10 12 5 9 14 9 4 6 8 8
3 3 1 3 1 7 3 7 9 8 13 10 7 10 7 6 3 7 10 7 6 6 11 15 8 13 16 6 8 14 30 32 37 14 22 16 7 8 4 8 9 19 14 6 11
8 4 4 3 7 7 3 5 4 6 7 5 4 3 7 8 8 5 4 9 11 14 12 3 5 14 15 11 8 14 24 30 29 36 25 45 22 16 20 8 11 16 19 14 14
7 8 5 5 1 9 10 8 8 5 7 11 7 5 4 8 7 9 10 2 12 8 3 5 1 12 3 12 13 7 11 33 34 21 19 26 21 13 1 10 24 26 6 8 7
22 16 6 6 6 7 9 12 11 5 14 26 10 5 14 12 16 34 41 28 16 6 4 2 4 6 6 8 4 7 24 30 28 31 41 29 49 9 15 19 37 29 15 15 12
Wind_Direction_500mb
307 302 299 299 298 299 293 292 288 277 282 267 257 245 249 254 258 250 244 247 243 236 226 222 228 241 259 261 240 180 84 215 217 162 242 177 181 171 178 161 173 188 185 194 176
318 317 309 304 301 301 295 292 288 279 277 280 263 249 241 248 255 253 245 242 237 231 227 225 222 208 216 232 227 177 149 220 205 203 238 195 192 166 163 169 198 189 191 180 177
332 323 318 313 304 298 294 292 289 270 280 272 297 271 227 236 265 260 240 232 224 221 222 220 218 219 187 199 210 196 182 211 266 240 261 253 199 176 148 234 208 201 192 180 181
346 342 333 317 306 298 291 296 289 290 272 268 292 274 216 210 215 228 220 216 215 214 214 212 196 182 184 181 193 199 219 182 277 236 248 252 202 196 195 204 224 217 205 183 187
344 345 343 333 321 312 296 293 299 292 283 279 263 287 204 203 224 216 196 195 196 204 207 203 189 179 187 191 159 182 142 220 238 243 231 259 252 236 239 222 232 204 201 196 196
332 339 339 338 333 328 311 299 294 310 293 288 277 290 241 230 228 209 184 160 179 196 205 205 207 191 180 205 172 187 182 258 268 253 212 218 239 217 271 213 206 197 197 200 202
319 327 332 334 335 334 322 308 296 298 293 295 273 285 276 232 255 209 201 164 152 184 195 202 207 189 163 143 196 125 118 194 243 223 243 181 278 219 247 206 205 197 200 202 205
316 315 322 327 331 331 327 312 301 297 288 282 290 253 249 289 223 204 189 171 161 167 180 190 180 189 194 133 78 123 114 182 249 163 237 163 257 257 231 215 211 206 206 208 209
326 317 319 324 324 328 329 321 307 302 300 288 310 316 278 271 208 197 184 170 162 164 154 169 172 183 158 130 85 232 196 173 311 208 139 180 258 244 217 210 222 221 216 215 216
323 323 320 324 325 329 331 329 319 303 304 305 270 290 272 280 209 192 158 142 141 158 132 147 160 146 96 179 195 170 135 164 184 207 178 191 249 262 232 214 226 227 228 228 228
327 326 328 320 322 331 337 347 3 353 342 294 288 224 300 276 222 201 173 157 130 157 151 149 128 202 210 123 53 137 139 158 181 182 168 245 255 261 270 256 254 242 237 235 235
331 335 331 324 320 340 357 24 343 332 299 305 258 257 269 301 252 207 210 168 178 162 129 97 202 179 166 224 78 44 133 175 132 112 169 287 268 263 246 242 247 249 248 244 243
328 335 331 327 332 354 4 2 346 332 289 297 237 241 244 268 321 196 186 172 140 135 179 171 225 158 159 175 163 171 152 169 128 85 243 332 288 262 258 242 251 251 251 251 254
326 332 333 340 340 353 350 346 347 331 311 291 360 250 207 211 285 187 182 162 125 175 130 204 153 169 153 191 168 216 157 61 55 71 236 46 275 271 252 258 251 251 248 248 248
326 332 335 349 346 358 343 345 348 330 10 311 291 196 204 146 323 274 196 129 150 147 150 207 167 147 149 187 140 200 155 176 180 154 43 230 281 264 250 274 263 246 247 249 251
324 327 330 337 353 351 350 351 336 44 273 337 318 241 201 172 152 297 147 102 97 109 89 88 162 158 171 144 145 146 88 65 72 107 262 198 204 218 202 202 234 257 261 272 280
323 327 323 326 328 342 353 349 33 104 338 328 347 338 317 135 206 178 241 186 158 157 171 119 192 262 152 100 105 138 128 52 19 9 236 325 187 259 279 255 220 261 283 318 315
320 311 323 319 329 356 39 47 69 248 278 325 338 298 276 187 236 208 200 226 278 25 115 151 206 175 188 170 170 174 172 154 182 202 222 25 234 247 240 286 275 264 268 275 299
9 65 16 345 335 51 35 49 201 208 286 341 335 337 314 237 16 251 222 231 183 227 177 165 257 94 139 128 146 200 211 152 106 42 67 223 291 286 287 279 271 273 273 266 227
32 90 57 11 88 112 71 252 222 242 334 324 66 306 1 7 211 208 197 233 217 191 55 90 240 116 152 117 31 188 149 154 28 135 244 272 279 247 309 282 295 284 272 251 201
358 346 53 90 127 86 142 231 292 312 337 320 293 291 270 312 220 262 214 319 218 190 184 109 76 316 132 205 184 161 191 206 135 158 177 208 257 222 242 280 290 287 278 235 211
309 28 138 80 45 11 100 194 324 284 254 253 273 268 232 206 230 275 242 339 239 142 207 159 152 191 199 265 263 199 204 204 201 199 222 151 270 207 240 280 261 267 286 226 220
253 236 230 5 109 316 312 299 256 306 287 316 282 280 326 302 317 65 342 329 13 172 174 160 207 149 261 342 329 200 191 194 157 102 198 155 253 263 209 62 51 88 115 155 160
262 10 120 218 205 146 245 287 310 268 282 262 256 306 306 296 81 307 357 330 61 19 12 187 207 222 226 124 132 208 204 196 202 209 224 232 244 312 279 98 74 97 100 124 160
211 246 172 230 255 205 90 168 272 334 247 287 324 214 314 303 327 279 297 319 272 198 146 212 277 219 217 222 175 186 219 211 207 212 197 239 249 249 283 192 170 101 101 102 122
200 165 180 265 233 155 205 235 220 255 213 281 216 317 221 249 262 302 352 149 255 348 88 167 260 1 219 186 213 219 204 199 223 232 245 251 262 219 180 219 224 225 202 148 147
218 214 209 213 210 200 215 213 224 171 265 242 270 318 312 264 289 270 270 262 264 226 211 231 156 105 307 39 55 235 212 213 211 206 214 228 243 174 222 226 241 244 247 245 269
Wind_Speed_850mb
35 38 42 43 46 45 50 47 53 61 59 54 53 49 46 46 49 48 57 57 47 50 28 33 34 31 35 12 14 10 6 6 11 11 11 11 10 10 14 19 16 19 8 7 45
34 35 35 37 40 41 42 45 43 54 68 54 56 38 45 43 46 59 55 45 44 41 39 47 35 27 27 8 11 10 9 15 11 10 8 11 13 27 13 16 15 21 17 14 49
35 36 35 36 37 37 42 49 48 48 58 67 40 50 44 40 34 66 48 42 41 40 39 35 41 36 21 25 14 10 13 9 7 14 8 4 13 21 18 7 26 44 34 32 52
34 36 37 37 40 39 39 42 44 47 48 60 48 32 43 38 15 19 38 42 45 42 37 39 34 20 13 15 19 7 15 10 5 8 3 4 7 13 29 15 37 36 38 42 54
32 36 40 40 42 41 40 41 41 42 42 43 69 36 48 37 48 14 17 27 33 45 45 41 40 23 13 14 15 6 4 12 34 10 8 6 9 10 25 26 16 37 44 46 48
33 36 40 45 45 41 39 41 40 43 39 33 54 46 25 22 39 26 23 24 20 30 44 42 25 27 17 10 15 14 17 6 9 17 10 4 4 1 10 29 24 40 51 51 50
38 38 38 43 48 45 39 39 34 41 38 35 30 36 42 50 11 33 32 22 15 19 30 42 20 26 14 8 10 13 10 4 15 7 7 10 14 12 13 25 27 45 52 56 55
38 39 39 41 46 49 44 39 38 43 36 34 25 23 18 32 33 32 35 29 24 20 21 35 18 15 8 11 8 13 7 7 5 18 7 11 16 11 32 21 32 41 53 58 60
35 36 38 38 45 46 48 43 38 38 39 26 27 9 16 20 56 30 28 30 30 25 25 29 19 9 8 14 7 2 10 11 5 18 6 10 10 7 15 28 32 38 49 55 58
33 33 36 37 42 46 48 45 34 34 29 22 13 3 21 16 51 40 31 31 22 27 23 20 9 3 2 9 22 13 10 4 11 8 7 7 20 12 1 19 37 36 39 49 56
29 32 35 36 39 43 48 42 20 9 38 16 12 10 17 19 20 48 37 23 17 23 8 12 8 16 10 6 5 11 9 12 7 5 7 10 12 19 27 21 21 30 42 51 56
27 30 31 33 36 35 29 21 20 25 21 41 29 39 39 43 10 45 43 23 17 10 12 7 13 12 12 8 8 10 8 8 4 6 8 6 15 22 15 19 44 52 44 48 60
26 29 31 30 27 20 20 27 24 23 10 17 21 24 24 16 19 41 52 26 10 12 13 12 4 20 13 10 13 8 8 4 5 8 2 6 13 17 12 25 51 62 67 65 62
25 28 30 26 12 22 17 30 27 23 6 8 5 9 18 16 12 20 56 21 8 17 12 6 6 20 11 12 14 15 14 3 9 9 7 2 11 12 11 16 14 46 58 70 79
22 23 25 17 16 16 29 26 21 14 9 12 2 6 11 16 10 4 28 4 20 18 14 11 14 21 8 11 13 10 13 15 5 5 7 4 7 13 2 13 16 24 55 70 78
20 20 19 13 12 20 24 16 20 10 8 14 11 6 10 15 10 12 8 3 10 11 1 4 4 8 14 7 13 15 13 13 8 6 5 12 11 9 11 12 8 13 27 27 29
21 15 13 11 13 19 15 13 10 8 12 15 9 13 14 3 9 16 5 9 10 12 10 7 3 3 8 11 6 7 14 4 4 2 13 9 10 18 13 15 11 13 19 15 18
15 7 7 9 13 15 7 10 12 8 9 8 15 17 6 4 10 16 12 10 10 2 6 11 8 18 10 12 14 15 20 10 14 7 7 2 14 12 12 28 30 37 42 33 15
6 2 3 6 11 6 7 9 12 11 7 13 19 8 6 8 2 4 12 13 15 13 8 9 8 4 4 7 17 11 13 9 12 5 5 8 13 16 18 20 17 25 22 17 12
8 6 7 7 5 5 8 6 6 6 8 5 2 6 7 17 9 10 10 9 13 22 5 4 1 2 7 6 8 11 16 6 3 8 7 8 9 10 9 13 11 12 13 12 16
7 1 6 9 9 3 6 11 9 12 8 5 8 10 8 6 2 11 11 5 6 14 20 7 3 7 10 18 27 8 14 7 8 9 10 3 11 14 14 6 13 15 18 13 14
4 4 3 3 4 3 2 8 9 10 7 7 9 12 8 7 6 7 7 3 9 11 10 12 5 8 14 2 8 30 21 27 11 9 3 4 11 7 12 11 19 23 15 13 10
4 3 1 1 3 5 10 8 7 5 6 5 8 5 5 5 6 1 9 15 21 16 14 13 11 3 3 6 7 26 15 30 7 5 13 10 12 5 9 14 9 4 6 8 8
3 3 1 3 1 7 3 7 9 8 13 10 7 10 7 6 3 7 10 7 6 6 11 15 8 13 16 6 8 14 30 32 37 14 22 16 7 8 4 8 9 19 14 6 11
8 4 4 3 7 7 3 5 4 6 7 5 4 3 7 8 8 5 4 9 11 14 12 3 5 14 15 11 8 14 24 30 29 36 25 45 22 16 20 8 11 16 19 14 14
7 8 5 5 1 9 10 8 8 5 7 11 7 5 4 8 7 9 10 2 12 8 3 5 1 12 3 12 13 7 11 33 34 21 19 26 21 13 1 10 24 26 6 8 7
22 16 6 6 6 7 9 12 11 5 14 26 10 5 14 12 16 34 41 28 16 6 4 2 4 6 6 8 4 7 24 30 28 31 41 29 49 9 15 19 37 29 15 15 12
Wind_Direction_850mb
307 302 299 299 298 299 293 292 288 277 282 267 257 245 249 254 258 250 244 247 243 236 226 222 228 241 259 261 240 180 84 215 217 162 242 177 181 171 178 161 173 188 185 194 176
318 317 309 304 301 301 295 292 288 279 277 280 263 249 241 248 255 253 245 242 237 231 227 225 222 208 216 232 227 177 149 220 205 203 238 195 192 166 163 169 198 189 191 180 177
332 323 318 313 304 298 294 292 289 270 280 272 297 271 227 236 265 260 240 232 224 221 222 220 218 219 187 199 210 196 182 211 266 240 261 253 199 176 148 234 208 201 192 180 181
346 342 333 317 306 298 291 296 289 290 272 268 292 274 216 210 215 228 220 216 215 214 214 212 196 182 184 181 193 199 219 182 277 236 248 252 202 196 195 204 224 217 205 183 187
344 345 343 333 321 312 296 293 299 292 283 279 263 287 204 203 224 216 196 195 196 204 207 203 189 179 187 191 159 182 142 220 238 243 231 259 252 236 239 222 232 204 201 196 196
332 339 339 338 333 328 311 299 294 310 293 288 277 290 241 230 228 209 184 160 179 196 205 205 207 191 180 205 172 187 182 258 268 253 212 218 239 217 271 213 206 197 197 200 202
319 327 332 334 335 334 322 308 296 298 293 295 273 285 276 232 255 209 201 164 152 184 195 202 207 189 163 143 196 125 118 194 243 223 243 181 278 219 247 206 205 197 200 202 205
316 315 322 327 331 331 327 312 301 297 288 282 290 253 249 289 223 204 189 171 161 167 180 190 180 189 194 133 78 123 114 182 249 163 237 163 257 257 231 215 211 206 206 208 209
326 317 319 324 324 328 329 321 307 302 300 288 310 316 278 271 208 197 184 170 162 164 154 169 172 183 158 130 85 232 196 173 311 208 139 180 258 244 217 210 222 221 216 215 216
323 323 320 324 325 329 331 329 319 303 304 305 270 290 272 280 209 192 158 142 141 158 132 147 160 146 96 179 195 170 135 164 184 207 178 191 249 262 232 214 226 227 228 228 228
327 326 328 320 322 331 337 347 3 353 342 294 288 224 300 276 222 201 173 157 130 157 151 149 128 202 210 123 53 137 139 158 181 182 168 245 255 261 270 256 254 242 237 235 235
331 335 331 324 320 340 357 24 343 332 299 305 258 257 269 301 252 207 210 168 178 162 129 97 202 179 166 224 78 44 133 175 132 112 169 287 268 263 246 242 247 249 248 244 243
328 335 331 327 332 354 4 2 346 332 289 297 237 241 244 268 321 196 186 172 140 135 179 171 225 158 159 175 163 171 152 169 128 85 243 332 288 262 258 242 251 251 251 251 254
326 332 333 340 340 353 350 346 347 331 311 291 360 250 207 211 285 187 182 162 125 175 130 204 153 169 153 191 168 216 157 61 55 71 236 46 275 271 252 258 251 251 248 248 248
326 332 335 349 346 358 343 345 348 330 10 311 291 196 204 146 323 274 196 129 150 147 150 207 167 147 149 187 140 200 155 176 180 154 43 230 281 264 250 274 263 246 247 249 251
324 327 330 337 353 351 350 351 336 44 273 337 318 241 201 172 152 297 147 102 97 109 89 88 162 158 171 144 145 146 88 65 72 107 262 198 204 218 202 202 234 257 261 272 280
323 327 323 326 328 342 353 349 33 104 338 328 347 338 317 135 206 178 241 186 158 157 171 119 192 262 152 100 105 138 128 52 19 9 236 325 187 259 279 255 220 261 283 318 315
320 311 323 319 329 356 39 47 69 248 278 325 338 298 276 187 236 208 200 226 278 25 115 151 206 175 188 170 170 174 172 154 182 202 222 25 234 247 240 286 275 264 268 275 299
9 65 16 345 335 51 35 49 201 208 286 341 335 337 314 237 16 251 222 231 183 227 177 165 257 94 139 128 146 200 211 152 106 42 67 223 291 286 287 279 271 273 273 266 227
32 90 57 11 88 112 71 252 222 242 334 324 66 306 1 7 211 208 197 233 217 191 55 90 240 116 152 117 31 188 149 154 28 135 244 272 279 247 309 282 295 284 272 251 201
358 346 53 90 127 86 142 231 292 312 337 320 293 291 270 312 220 262 214 319 218 190 184 109 76 316 132 205 184 161 191 206 135 158 177 208 257 222 242 280 290 287 278 235 211
309 28 138 80 45 11 100 194 324 284 254 253 273 268 232 206 230 275 242 339 239 142 207 159 152 191 199 265 263 199 204 204 201 199 222 151 270 207 240 280 261 267 286 226 220
253 236 230 5 109 316 312 299 256 306 287 316 282 280 326 302 317 65 342 329 13 172 174 160 207 149 261 342 329 200 191 194 157 102 198 155 253 263 209 62 51 88 115 155 160
262 10 120 218 205 146 245 287 310 268 282 262 256 306 306 296 81 307 357 330 61 19 12 187 207 222 226 124 132 208 204 196 202 209 224 232 244 312 279 98 74 97 100 124 160
211 246 172 230 255 205 90 168 272 334 247 287 324 214 314 303 327 279 297 319 272 198 146 212 277 219 217 222 175 186 219 211 207 212 197 239 249 249 283 192 170 101 101 102 122
200 165 180 265 233 155 205 235 220 255 213 281 216 317 221 249 262 302 352 149 255 348 88 167 260 1 219 186 213 219 204 199 223 232 245 251 262 219 180 219 224 225 202 148 147
218 214 209 213 210 200 215 213 224 171 265 242 270 318 312 264 289 270 270 262 264 226 211 231 156 105 307 39 55 235 212 213 211 206 214 228 243 174 222 226 241 244 247 245 269